COSMOS 1660 DEB, 43313

Orbit data source: Space-Track

COSMOS 1660 DEB, 43313 is space debris in LEO originally from a launch on Fri, 14 Jun 1985 UTC launched from the Plesetsk Missile And Space Complex (PKMTR). Debris objects in space refer to the collection of defunct objects orbiting the Earth. Examples of debris include non-operational satellites, rocket bodies, and fragments generated from explosions, collisions, or faulty payload assembly.

Loading next visibility...
Identifier
43313, 1985-047CE
Orbit
LEO
Country
Flag of CISCIS
Related business
Manufacturer
Unknown
Mission
Spacecraft
Bus & Motor
Unknown
Mass
Unknown
Launch date (UTC)
1985-06-14 (41 years ago)
Launch vehicle
Unknown
Launch site
Plesetsk Missile And Space Complex (PKMTR)
Object type
Payload
Rocket body
Debris
Shape & HBR
Unknown shape, 0.1 m
Radar Cross Section
Small (<0.1 m²)

Expand to show TLE details & history
Last TLE update: 1 month ago

TLE from 1 month ago
0 COSMOS 1660 DEB
1 43313U 85047CE  26137.51475595  .00000010  00000-0  20162-3 0  9993
2 43313  73.6251 224.2573 0026760 109.4185 270.5581 12.41073823803688
Epoch: 2026-05-17T12:21Z
TLE epoch observation values (Epoch: 2026-05-17T12:21:14.914Z)
Latitude
18.84438°
Longitude
169.45626°
Altitude
1,503.777 km
Speed
7.114 km/s
True Right ascension
15h 19m 56s
True Declination
18° 44' 58"
Sunlit
Object was in full shadow at epoch
Visualization orbit readout
Latitude
Unknown
Longitude
Unknown
Altitude
Unknown
Speed
Unknown
Apparent Right ascension
Unknown
Apparent Declination
Unknown
Sunlit
N/A
Visualization observer readout
Local Sidereal Time
21:25:57
Azimuth
Unknown
Elevation
Unknown
Doppler factor
Unknown
Orbital elements
Apogee altitude
1,521.013 km
Perigee altitude
1,478.85 km
Semi-major axis
7,878.068 km
Eccentricity
0.00268
Inclination
73.6251°
RAAN
224.2573°
Arg. of periapsis
109.4185°
True anomaly
270.25146°
Mean anomaly
270.5581°
Eccentric anomaly
270.40478°
Mean motion
3.10394 °/min
Orbital period
115.98 mins
BSTAR
0.00020162
Loading maneuver chart data...
Computing Atmospheric mass density...
Loading historical data...
Loading historical data...
Loading historical data...
Loading historical data...
Loading historical data...
Loading historical data...
Loading historical data...
Other satellites on launch #47 in the year 1985 (1985-06-14 UTC)

Documentation

Showing up to 5 results
|